Location: Hylvaty SDH
(49.9612°N, 16.4057°E)
Time: 20:14:38
(UTC+02:00)

Transit 4A - Pass Details

Date: 11 August 2020
Orbit: 862 x 982 km, 66.8° (Epoch: 28 September)

Event Time Altitude Azimuth Distance (km) Brightness Sun altitude
Rises 16:33:39 0° 321° (NW) 3,626 11.2 34.6°
Reaches altitude 10° 16:36:31 10° 332° (NNW) 2,696 10.5 34.1°
Maximum altitude 16:42:04 31° 33° (NNE) 1,634 9.1 33.3°
Drops below altitude 10° 16:47:41 10° 95° (E) 2,732 10.0 32.4°
Sets 16:50:35 0° 105° (ESE) 3,681 10.6 32.0°
